This demonstration page uses our WeatherBlox Daily Observations layout. Learn more.

Left ArrowRight Arrow

Hourly Observations for June 1, 2015

Temp ( °F °C ) Dew Point ( °F °C ) Humidity (%) Winds ( mph kmh ) Pressure ( in mb ) Visibility ( mi km ) Precip ( " mm )
12:59 am 00:59 Partly Cloudy 80 26.7 68 20 67 67 S 9 15 30.09 1019 10 16 0.00 0.00
1:59 am 01:59 Mostly Cloudy 79 26.1 68 20 69 69 S 7 11 30.09 1019 10 16 0.00 0.00
2:59 am 02:59 Partly Cloudy 78 25.6 68 20 71 71 S 8 13 30.07 1018 10 16 0.00 0.00
3:59 am 03:59 Mostly Cloudy 78 25.6 68 20 71 71 SSW 9 15 30.07 1018 10 16 0.00 0.00
4:59 am 04:59 Mostly Cloudy 77 25 68 20 74 74 SSW 9 15 30.08 1019 10 16 0.00 0.00
5:59 am 05:59 Mostly Cloudy 76 24.4 68 20 77 77 SSW 8 13 30.09 1019 10 16 0.00 0.00
6:59 am 06:59 Partly Cloudy 78 25.6 68 20 71 71 SSW 10 17 30.09 1019 10 16 0.00 0.00
7:59 am 07:59 Partly Cloudy 80 26.7 69 20.6 69 69 SSW 12 19 30.09 1019 10 16 0.00 0.00
8:59 am 08:59 Partly Cloudy 83 28.3 67 19.4 59 59 SSW 12 19 30.09 1019 10 16 0.00 0.00
9:59 am 09:59 Partly Cloudy 86 30 68 20 55 55 SSW 12 19 30.08 1019 10 16 0.00 0.00
10:59 am 10:59 Partly Cloudy 88 31.1 68 20 52 52 S 10 17 30.07 1018 10 16 0.00 0.00
11:59 am 11:59 Partly Cloudy 91 32.8 67 19.4 45 45 SW 9 15 30.06 1018 10 16 0.00 0.00
12:59 pm 12:59 Partly Cloudy 93 33.9 67 19.4 42 42 S 8 13 30.05 1018 10 16 0.00 0.00
1:59 pm 13:59 Partly Cloudy 94 34.4 66 18.9 40 40 SW 8 13 30.03 1017 10 16 0.00 0.00
2:59 pm 14:59 Mostly Cloudy 94 34.4 65 18.3 38 38 VRB 6 9 30.01 1016 10 16 0.00 0.00
3:59 pm 15:59 Mostly Cloudy 94 34.4 65 18.3 38 38 S 12 19 29.98 1015 10 16 0.00 0.00
4:59 pm 16:59 Mostly Cloudy 95 35 65 18.3 37 37 S 9 15 29.96 1015 10 16 0.00 0.00
5:59 pm 17:59 Mostly Cloudy 91 32.8 68 20 47 47 SE 15 24 29.96 1015 10 16 0.00 0.00
6:59 pm 18:59 Mostly Cloudy 89 31.7 68 20 50 50 SSE 13 20 29.98 1015 10 16 0.00 0.00
7:59 pm 19:59 Mostly Cloudy 85 29.4 66 18.9 53 53 SSE 8 13 30.03 1017 10 16 0.00 0.00
8:59 pm 20:59 Mostly Clear 85 29.4 66 18.9 53 53 SSE 13 20 30.01 1016 10 16 0.00 0.00
9:59 pm 21:59 Mostly Clear 83 28.3 66 18.9 57 57 S 10 17 30.02 1017 10 16 0.00 0.00
10:59 pm 22:59 Mostly Cloudy 82 27.8 65 18.3 56 56 S 12 19 30.04 1017 10 16 0.00 0.00
11:42 pm 23:42 Mostly Cloudy 80 26.7 67 19.4 64 64 NW 16 26 30.06 1018 10 16 0.00 0.00
11:50 pm 23:50 Mostly Cloudy 79 26.1 66 18.9 65 65 NW 10 17 30.06 1018 10 16 0.00 0.00
11:59 pm 23:59 Mostly Cloudy 79 26.1 66 18.9 65 65 NNW 9 15 30.06 1018 10 16 0.00 0.00

Powered by AerisWeather